This demonstration page uses our WeatherBlox Daily Observations layout. Learn more.

Left ArrowRight Arrow

Hourly Observations for August 31, 2018

Temp ( °F °C ) Dew Point ( °F °C ) Humidity (%) Winds ( mph kmh ) Pressure ( in mb ) Visibility ( mi km ) Precip ( " mm )
12:15 am 00:15 Clear 60 15.6 60 15.3 98 98 Calm 30.12 1020 10 16 0.00 0.00
12:35 am 00:35 Clear 59 15 59 15 100 100 Calm 30.12 1020 10 16 0.00 0.00
12:55 am 00:55 Clear 59 14.9 59 14.9 100 100 Calm 30.12 1020 10 16 0.00 0.00
1:15 am 01:15 Clear 59 15.2 59 15 99 99 Calm 30.12 1020 10 16 0.00 0.00
1:35 am 01:35 Clear 58 14.7 58 14.7 100 100 Calm 30.12 1020 10 16 0.00 0.00
1:55 am 01:55 Clear 58 14.2 58 14.2 100 100 Calm 30.12 1020 10 16 0.00 0.00
2:15 am 02:15 Clear 58 14.2 58 14.2 100 100 Calm 30.12 1020 10 16 0.00 0.00
2:35 am 02:35 Clear 58 14.3 58 14.3 100 100 Calm 30.12 1020 10 16 0.00 0.00
2:55 am 02:55 Clear 57 14.1 57 14.1 100 100 Calm 30.12 1020 10 16 0.00 0.00
3:15 am 03:15 Clear 57 14 57 14 100 100 Calm 30.12 1020 10 16 0.00 0.00
3:35 am 03:35 Clear 57 13.7 57 13.7 100 100 Calm 30.12 1020 10 16 0.00 0.00
3:55 am 03:55 Clear 56 13.5 56 13.5 100 100 Calm 30.15 1021 10 16 0.00 0.00
4:15 am 04:15 Clear 56 13.5 56 13.5 100 100 Calm 30.15 1021 10 16 0.00 0.00
4:35 am 04:35 Clear 56 13.5 56 13.5 100 100 Calm 30.15 1021 7 11 0.00 0.00
4:55 am 04:55 Clear 56 13.5 56 13.5 100 100 Calm 30.15 1021 10 16 0.00 0.00
5:15 am 05:15 Clear 56 13.1 56 13.1 100 100 Calm 30.15 1021 7 11 0.00 0.00
5:35 am 05:35 Clear with Mist and Fog 56 13.4 56 13.4 100 100 Calm 30.15 1021 5 8 0.00 0.00
5:55 am 05:55 Clear with Mist and Fog 56 13.5 56 13.5 100 100 Calm 30.15 1021 5 8 0.00 0.00
6:15 am 06:15 Clear with Mist and Fog 56 13.6 56 13.6 100 100 Calm 30.15 1021 5 8 0.00 0.00
6:35 am 06:35 Clear with Mist and Fog 56 13.2 56 13.2 100 100 Calm 30.15 1021 4 6 0.00 0.00
6:55 am 06:55 Clear with Mist and Fog 56 13.4 56 13.4 100 100 Calm 30.15 1021 5 8 0.00 0.00
7:15 am 07:15 Sunny with Mist and Fog 56 13.2 56 13.2 100 100 Calm 30.15 1021 3 4 0.00 0.00
7:35 am 07:35 Mostly Cloudy with Mist and Fog 57 13.8 57 13.8 100 100 Calm 30.12 1020 2 3 0.00 0.00
7:55 am 07:55 Sunny with Mist and Fog 58 14.4 58 14.4 100 100 Calm 30.12 1020 4 6 0.00 0.00
8:15 am 08:15 Sunny with Mist and Fog 60 15.4 60 15.4 100 100 Calm 30.12 1020 4 6 0.00 0.00
8:35 am 08:35 Sunny with Mist and Fog 62 16.7 62 16.7 100 100 E 3 6 30.12 1020 5 8 0.00 0.00
8:55 am 08:55 Sunny 64 18 64 18 100 100 ESE 3 6 30.12 1020 7 11 0.00 0.00
9:15 am 09:15 Sunny 66 18.9 65 18.6 98 98 SE 3 6 30.12 1020 7 11 0.00 0.00
9:35 am 09:35 Sunny 68 20.2 67 19.3 95 95 Calm 30.12 1020 10 16 0.00 0.00
9:55 am 09:55 Sunny 71 21.5 68 19.8 90 90 SSE 3 6 30.12 1020 10 16 0.00 0.00
10:15 am 10:15 Sunny 72 22.2 68 19.9 87 87 SSE 3 6 30.12 1020 10 16 0.00 0.00
10:35 am 10:35 Sunny 73 22.9 68 20 84 84 S 5 7 30.09 1019 10 16 0.00 0.00
10:55 am 10:55 Sunny 75 23.9 68 20 79 79 SE 5 7 30.09 1019 10 16 0.00 0.00
11:15 am 11:15 Sunny 76 24.4 68 20 77 77 SSE 5 7 30.09 1019 10 16 0.00 0.00
11:35 am 11:35 Sunny 77 25 68 20.1 74 74 S 3 6 30.09 1019 10 16 0.00 0.00
11:55 am 11:55 Sunny 77 25.2 69 20.5 75 75 SSE 3 6 30.09 1019 10 16 0.00 0.00
12:15 pm 12:15 Sunny 79 26 69 20.7 73 73 SSW 7 11 30.09 1019 10 16 0.00 0.00
12:35 pm 12:35 Sunny 79 26.1 69 20.5 71 71 Calm 30.09 1019 10 16 0.00 0.00
12:55 pm 12:55 Partly Cloudy 80 26.7 70 21 71 71 SSW 5 7 30.09 1019 10 16 0.00 0.00
1:15 pm 13:15 Sunny 80 26.8 69 20.8 70 70 Calm 30.09 1019 10 16 0.00 0.00
1:35 pm 13:35 Sunny 82 27.7 71 21.4 69 69 S 6 9 30.09 1019 10 16 0.00 0.00
1:55 pm 13:55 Partly Cloudy 81 27.4 69 20.8 67 67 SE 3 6 30.06 1018 10 16 0.00 0.00
2:15 pm 14:15 Partly Cloudy 82 27.7 70 20.9 67 67 S 7 11 30.06 1018 10 16 0.00 0.00
2:35 pm 14:35 Mostly Cloudy 83 28.3 70 21.3 66 66 SSE 3 6 30.06 1018 10 16 0.00 0.00
2:55 pm 14:55 Partly Cloudy 82 27.7 69 20.6 65 65 Calm 30.06 1018 10 16 0.00 0.00
3:15 pm 15:15 Partly Cloudy 84 28.7 70 21 63 63 SSE 3 6 30.06 1018 10 16 0.00 0.00
3:35 pm 15:35 Partly Cloudy 83 28.4 70 21 64 64 S 3 6 30.06 1018 10 16 0.00 0.00
3:55 pm 15:55 Partly Cloudy 83 28.2 70 21.2 66 66 E 3 6 30.06 1018 10 16 0.00 0.00
4:15 pm 16:15 Partly Cloudy 84 29.1 70 21 62 62 SSE 5 7 30.03 1017 10 16 0.00 0.00
4:35 pm 16:35 Partly Cloudy 85 29.5 70 21.3 61 61 ESE 6 9 30.03 1017 10 16 0.00 0.00
4:55 pm 16:55 Partly Cloudy 84 28.9 71 21.5 64 64 SE 7 11 30.03 1017 10 16 0.00 0.00
5:15 pm 17:15 Sunny 83 28.4 71 21.6 67 67 SSE 7 11 30.03 1017 10 16 0.00 0.00
5:35 pm 17:35 Mostly Cloudy with Nearby Thunderstorms 81 27.3 71 21.6 71 71 SSE 5 7 30.03 1017 10 16 0.00 0.00
5:55 pm 17:55 Mostly Cloudy 77 25.2 72 22 82 82 SW 9 15 30.03 1017 10 16 0.00 0.00
6:15 pm 18:15 Partly Cloudy 76 24.5 73 22.5 89 89 SSW 5 7 30.03 1017 10 16 0.00 0.00
6:35 pm 18:35 Partly Cloudy 76 24.6 72 22.1 86 86 SSW 5 7 30.03 1017 10 16 0.00 0.00
6:55 pm 18:55 Partly Cloudy 77 24.8 72 22.3 86 86 Calm 30.03 1017 10 16 0.00 0.00
7:15 pm 19:15 Sunny 78 25.6 72 22.2 82 82 SSE 5 7 30.03 1017 10 16 0.00 0.00
7:35 pm 19:35 Sunny 78 25.6 72 22.1 81 81 S 3 6 30.03 1017 10 16 0.00 0.00
7:55 pm 19:55 Sunny 77 24.8 72 22.2 86 86 SSE 3 6 30.03 1017 10 16 0.00 0.00
8:15 pm 20:15 Sunny 76 24.3 72 22.3 89 89 SSW 5 7 30.03 1017 10 16 0.00 0.00
8:35 pm 20:35 Clear 74 23.4 72 22.1 92 92 S 5 7 30.03 1017 10 16 0.00 0.00
8:55 pm 20:55 Clear 73 22.7 72 22 96 96 Calm 30.03 1017 10 16 0.00 0.00
9:15 pm 21:15 Clear 73 22.6 72 22 96 96 SSE 3 6 30.03 1017 10 16 0.00 0.00
9:35 pm 21:35 Clear 72 22.4 72 22 98 98 S 3 6 30.03 1017 10 16 0.00 0.00
9:55 pm 21:55 Clear 72 22.3 72 22 98 98 S 5 7 30.03 1017 10 16 0.00 0.00
10:15 pm 22:15 Partly Cloudy 73 22.5 72 22 97 97 S 5 7 30.03 1017 10 16 0.00 0.00
10:35 pm 22:35 Partly Cloudy 74 23.2 71 21.9 92 92 S 7 11 30.06 1018 10 16 0.00 0.00
10:55 pm 22:55 Clear 73 23 71 21.7 92 92 S 6 9 30.06 1018 10 16 0.00 0.00
11:15 pm 23:15 Clear 73 23 70 21.3 90 90 S 8 13 30.06 1018 10 16 0.00 0.00
11:35 pm 23:35 Clear 73 23 70 21.1 89 89 S 6 9 30.06 1018 10 16 0.00 0.00
11:55 pm 23:55 Clear 73 23 69 20.5 86 86 S 7 11 30.06 1018 10 16 0.00 0.00

Powered by AerisWeather